Vancouver Int'l Airport, British Columbia

Past 24 Hour Conditions

This table is a summary of hourly weather conditions for the past 24 hours. This summary includes the following parameters: temperature, humidity, dew point, wind speed and direction, air pressure, visibility and/or wind chill and humidex.
Date / Time
(PDT)
Conditions Temp (°C) Humidity (%) Dew Point (°C) Wind (km/h) Pressure (kPa) Visibility (km)
23 September 2014
1:00 Mostly Cloudy 16   81 13 ENE 5 101.3 24
00:00 Mostly Cloudy 17 79 13 NE 4 101.3 24
22 September 2014
23:00 Mostly Cloudy 17 76 13 NE 10 101.3 32
22:00 Mostly Cloudy 17 78 13 NE 12 101.3 32
21:00 Mostly Cloudy 17 79 13 E 8 101.4 32
20:00 Mostly Cloudy 17 78 13 SE 5 101.4 32
19:00 Mostly Cloudy 18 72 13 ESE 9 101.4 32
18:00 Partly Cloudy 19 69 13 E 17 101.4 32
17:00 Mostly Cloudy 19 66 13 SE 20 101.4 32
16:00 Partly Cloudy 20 63 13 ESE 23 101.5 32
15:00 Mostly Cloudy 21   63 13 ESE 22 101.5 32
14:00 Mostly Cloudy 20 70 14 ENE 17 101.5 32
13:00 Mostly Cloudy 19 76 15 ENE 19 101.5 32
12:00 Mostly Cloudy 17 84 15 ESE 17 101.6 24
11:00 Mostly Cloudy 17 86 15 E 17 101.5 24
10:00 Mostly Cloudy 17 86 14 ESE 15 101.6 24
9:00 Mostly Cloudy 16   87 14 E 21 101.5 24
8:00 Mostly Cloudy 17 85 14 ESE 22 101.4 24
7:00 Mostly Cloudy 17 84 14 E 21 101.4 24
6:00 Mostly Cloudy 17 84 14 ESE 22 101.4 24
5:00 Mostly Cloudy 16   85 14 E 21 101.4 24
4:00 Partly Cloudy 16   86 14 E 24 101.3 24
3:00 Mostly Cloudy 16   86 14 E 21 101.3 24
2:00 Mainly Clear 16   85 14 ESE 21 101.3 24
1:00 Mainly Clear 17 84 14 ESE 18 101.2 24
N/A
Not available
 ↑ 
Highest temperature
 ↓ 
Lowest temperature

If you require additional historical weather information, please visit Climate Data Online.